Погода в Прибрежном

Россия / Саратовская область     51°30′50″N   46°13′31″E
темп.,
°C
ветер,
м/с
пор.,
м/с
влажн.,
%
обл.,
%
осадки,
мм/ч
давл.,
гПа
погр.,
м
29 июня, ср
ср2901:00+13св48720 0.0 1018192
04:00+12ссв34760 0.0 101889
07:00+14с34700 0.0 1019226
10:00+18ссв45510 0.0 10191187
13:00+20с56436 0.0 10181537
16:00+19св6649100 0.0 10181160
19:00+18св4657100 0.0 1018877
22:00+14в3668100 0.0 1019161
30 июня, чт
чт3001:00+12ю11737 0.0 101938
04:00+13з347412 0.0 1018115
07:00+15сз46670 0.0 1018253
10:00+19ссз34530 0.0 1017929
13:00+21зсз344537 0.0 10161724
16:00+20сз575274 0.0 1014531
19:00+21с354867 0.0 1013785
22:00+18зсз4660100 0.0 101387
1 июля, пт
пт101:00+17зсз4461100 0.0 101261
04:00+17зсз59614 0.0 1011252
07:00+15с356977 0.0 1011250
10:00+16ссв576665 0.2 1012812
13:00+18с584691 0.1 10122044
16:00+17с894266 0.1 10122191
19:00+16с7105116 0.0 10122198
22:00+12ссз5106659 0.0 1013439
2 июля, сб
сб201:00+11сз61084100 0.6 1012711
04:00+11сз589198 2.3 1010374
07:00+13с7118718 0.3 1011930
10:00+14ссв587899 0.7 1011977
13:00+17ссв8127672 1.9 10111320
16:00+20с91362100 3.5 10101505
19:00+19с711695 1.5 1010784
22:00+15ссз49815 2.2 1011146
3 июля, вс
вс301:00+13ссз49805 0.0 1011175
04:00+13ссз47831 0.0 1011131
07:00+15ссз36762 0.0 1012184
10:00+20ссз34590 0.0 1012615
13:00+23ссз34505 0.0 10111292
16:00+24ссз354758 0.0 10111596
19:00+23зсз1159100 0.0 101135
22:00+20ссз226399 0.0 101117